Regional Weather Roundup
Issued by NWS Sioux Falls, SD

Home | Current Version | Previous Version | Graphics & Text | Print | Product List | Glossary On
Versions: 1 2 3 4 5 6 7 8 9 10 11 12 13 14 15 16 17 18 19 20 21 22 23 24 25 26 27 28 29 30 31 32 33 34 35 36 37 38 39 40 41 42 43 44 45 46 47 48 49 50
000
ASUS43 KFSD 190702
RWRFSD

WEATHER ROUNDUP FOR SE SOUTH DAKOTA/SW MINNESOTA/NW IOWA
NATIONAL WEATHER SERVICE SIOUX FALLS SD
200 AM CDT THU OCT 19 2017

NOTE: "FAIR" INDICATES FEW OR NO CLOUDS BELOW 12,000 FEET WITH NO
SIGNIFICANT WEATHER AND OR OBSTRUCTIONS TO VISIBILITY.


SDZ038>040-050-052>070-190800-
SOUTHEAST SOUTH DAKOTA

CITY           SKY/WX    TMP DP  RH WIND       PRES   REMARKS
BROOKINGS      CLOUDY    41  31  67 S3        30.04F
CHAMBERLAIN    NOT AVBL
HURON          CLOUDY    44  31  60 S9        30.00F
MADISON        FAIR      39  37  93 S7        30.05S
MITCHELL       CLOUDY    39  35  86 S6        30.03F
SIOUX FALLS    CLOUDY    39  36  89 CALM      30.06S
WINNER         FAIR      57  34  41 S16       29.99F
YANKTON        CLOUDY    44  35  70 CALM      30.06S
$$

MNZ071-072-080-081-089-090-097-098-190800-
SOUTHWEST MINNESOTA

CITY           SKY/WX    TMP DP  RH WIND       PRES   REMARKS
FAIRMONT       CLOUDY    42  33  70 CALM      30.06S
JACKSON        CLOUDY    43  32  65 CALM      30.07S
LUVERNE        CLOUDY    36  32  87 CALM      30.07S
MARSHALL       CLOUDY    47  29  49 SW3       30.03F
MONTEVIDEO     CLOUDY    43  28  56 W3        30.03R
PIPESTONE      CLOUDY    39  30  70 E3        30.05S
REDWOOD FALLS  CLOUDY    42  31  64 SW6       30.04S
TRACY          CLOUDY    49  32  51 SW7       30.04S
WORTHINGTON    CLOUDY    40  34  79 S3        30.06F
$$

IAZ001>003-012>014-020>022-031-032-NEZ013-014-SDZ071-190800-
NORTHWEST IOWA

CITY           SKY/WX    TMP DP  RH WIND       PRES   REMARKS
CHEROKEE       CLOUDY    40  40 100 CALM      30.07S
DENISON        PTCLDY    43  43 100 CALM      30.07R
ESTHERVILLE    CLOUDY    39  35  86 N6        30.06R
LE MARS        CLOUDY    39  37  93 CALM      30.07R
ORANGE CITY    CLOUDY    54  34  47 NE3       30.07R
SHELDON        PTCLDY    37  36  93 CALM      30.05S
SIOUX CITY     CLOUDY    41  40  96 NW5       30.06R
SPENCER        CLOUDY    35  33  92 NW6       30.07R
STORM LAKE     CLOUDY    50  36  57 CALM      30.07R
$$

ABBREVIATIONS USED IN REMARKS
   TC - TEMPERATURE IN CELSIUS
  WCI - WIND CHILL INDEX
   HX - HEAT INDEX
  VSB - VISIBILITY





USA.gov is the U.S. government's official web portal to all federal, state and local government web resources and services.